BEIDOU-2 G1

Last updated on Sat Apr 11 2026 00:02:51 GMT+0000 (Coordinated Universal Time)

1 36287U 10001A 26100.69284160 -.00000276 00000+0 00000+0 0 9997 2 36287 4.1350 60.5788 0003918 300.5049 227.6861 1.00268630 59492
UTC large
Height (km)
Speed (km/s)
/
Latitude / Longitude
Inclination (degrees)
Orbital Period (minutes)
Azimuth
Elevation
Range (km)
Doppler Factor

Next 0 passes for location: London (51.5072 / 0.1276)

Sorry there are no passes over London.
BEIDOU-2 G1